Wind_Speed
20 21 22 21 21 21 20 17 17 18 18 17 16 15 14 13 13 11 11 10 10 10 10 9 7 1 1 2 8 2 4 21 28 18 14 6 6 5 5 4 5 3 3 6 5 12 9
19 20 20 22 21 21 20 19 18 19 20 19 17 16 14 13 12 12 11 11 9 7 7 7 2 0 3 2 7 5 11 31 22 16 12 7 7 6 2 3 5 2 4 6 6 10 5
19 19 19 20 22 20 21 20 18 19 21 21 18 17 15 13 11 9 11 10 9 8 4 4 6 2 2 9 6 3 24 24 23 13 6 6 5 2 1 2 1 3 5 6 4 5 5
20 21 20 20 20 21 20 21 20 18 20 21 19 17 15 12 9 9 8 6 6 5 1 2 7 2 7 3 3 8 15 13 16 8 6 11 5 2 1 4 4 4 3 5 2 4 8
23 21 20 21 20 20 19 21 21 19 19 21 21 18 15 11 8 5 4 4 3 2 3 8 4 1 8 3 5 11 11 9 12 8 5 5 4 1 2 4 4 6 2 2 2 3 6
25 25 23 20 21 20 20 20 21 20 18 20 22 19 14 10 6 5 3 3 7 7 7 4 1 2 5 3 7 7 14 14 5 6 2 3 4 3 3 4 4 4 2 1 3 5 2
25 26 26 23 22 21 20 20 21 20 19 19 21 18 14 11 7 3 4 4 3 1 3 7 4 3 4 4 6 7 13 5 5 4 5 2 5 6 6 5 5 3 2 1 2 6 4
26 26 29 26 25 23 23 20 21 20 18 19 21 20 17 15 12 7 2 2 3 1 6 8 4 6 11 6 3 5 19 5 4 5 6 5 4 7 7 4 4 2 1 1 2 2 4
25 27 28 26 26 25 24 20 21 21 19 18 19 20 16 15 13 1 4 6 3 8 1 6 5 4 4 8 5 6 8 5 4 3 4 6 2 9 6 4 4 2 5 4 3 6 6
24 25 27 25 26 25 23 21 22 21 18 17 19 19 17 14 3 1 6 2 10 4 4 4 3 4 4 4 3 4 11 6 2 5 6 3 2 4 4 4 5 3 6 6 10 4 3
24 25 25 25 26 24 22 22 22 20 18 18 18 21 18 13 8 3 1 13 2 4 4 2 2 4 0 6 6 1 5 5 5 4 5 5 2 2 2 6 8 5 3 8 6 5 4
24 24 23 25 24 23 22 24 24 22 20 20 21 23 17 8 5 7 6 8 4 5 3 4 1 3 4 2 2 4 4 5 4 4 3 5 1 5 7 5 9 8 9 8 5 4 1
24 23 21 24 24 24 24 26 26 24 23 23 24 20 15 6 3 2 11 3 5 3 3 5 3 3 3 1 2 3 5 4 5 5 2 4 4 3 4 4 2 5 5 3 3 1 5
25 24 23 23 23 24 25 27 27 26 26 27 23 16 11 12 2 4 2 4 3 2 3 4 3 4 5 6 4 4 4 3 2 5 2 5 4 6 4 8 9 8 8 5 5 5 3
25 25 24 23 23 24 26 28 29 29 30 34 20 9 6 3 11 5 5 4 5 4 2 4 3 6 6 4 3 3 3 5 3 5 5 3 5 4 5 4 7 6 4 5 7 3 4
25 24 24 25 24 23 26 28 29 30 32 28 16 7 4 1 14 5 4 3 3 3 2 1 4 2 3 5 3 4 2 1 3 2 2 4 1 2 5 1 3 6 5 3 2 6 4
24 24 23 24 23 23 26 28 28 30 32 19 4 3 7 13 2 5 2 4 4 4 1 4 2 4 3 2 3 1 1 0 1 3 2 5 3 6 1 4 1 3 0 5 5 3 6
24 23 22 24 23 22 26 28 28 31 37 9 2 3 7 8 4 1 0 3 3 4 2 3 4 3 2 3 3 1 4 3 3 3 1 1 5 1 4 3 3 2 2 4 5 4 2
24 23 22 23 21 22 25 27 27 31 29 5 2 1 4 2 3 2 4 2 4 6 4 2 3 3 2 3 3 1 2 2 4 2 5 4 2 3 8 6 5 5 4 3 2 3 5
23 24 22 20 20 21 24 26 27 31 19 3 2 3 4 3 1 3 3 0 4 5 4 4 4 3 3 5 2 1 2 2 1 3 9 6 2 5 5 4 3 5 6 2 4 3 5
23 24 23 20 18 19 22 24 25 29 16 4 3 0 3 2 3 3 3 0 4 3 4 8 6 6 1 3 5 3 3 3 4 2 4 4 3 2 3 3 2 1 6 8 5 3 5
21 21 22 21 16 18 20 22 23 27 16 4 2 3 3 1 1 2 3 4 4 2 3 3 6 3 6 4 1 3 3 4 2 5 3 3 0 0 1 1 5 3 6 7 5 3 3
21 21 21 20 15 16 18 19 21 23 14 6 4 3 3 5 3 4 1 2 2 2 6 3 1 3 4 2 3 3 2 3 1 2 2 3 4 3 3 4 3 4 5 5 4 1 5
21 21 20 19 15 15 14 16 17 19 21 5 3 1 3 3 3 2 3 4 4 3 6 2 3 3 2 5 0 3 6 5 8 7 3 5 4 3 2 2 2 6 2 8 4 4 5
20 19 18 17 15 12 12 13 13 15 16 5 6 1 3 3 1 6 7 4 3 5 4 3 4 2 3 6 4 5 5 3 5 6 7 4 5 3 3 1 4 6 5 2 4 4 3
18 18 17 15 13 11 9 10 11 13 14 3 12 5 3 5 4 3 3 4 3 3 5 3 4 4 6 4 4 2 4 3 2 4 5 5 7 4 2 3 5 4 3 3 4 6 4
16 16 16 12 11 9 6 8 8 11 10 5 7 8 3 4 3 2 3 2 3 3 1 4 6 6 4 3 3 2 2 2 1 3 1 4 4 4 2 2 5 4 8 5 4 5 3
16 15 15 11 10 7 4 6 6 8 9 4 5 11 3 4 4 4 3 3 2 2 2 3 3 4 4 4 2 2 1 2 3 2 2 4 5 2 2 2 3 5 6 1 4 2 4
16 14 12 10 8 5 3 3 4 6 7 3 3 7 8 6 4 4 11 9 3 3 5 2 4 3 4 4 1 2 0 1 3 2 2 0 5 4 6 5 4 5 4 4 2 2 1
Wind_Direction
360 0 0 358 359 0 358 354 348 345 339 334 330 326 320 316 310 305 302 300 304 307 309 309 300 45 113 20 255 286 224 174 176 173 153 132 129 148 177 195 163 228 223 171 146 175 179
360 357 355 356 356 358 358 353 350 346 343 336 334 330 326 321 317 311 306 303 301 304 312 304 260 80 158 306 329 312 160 166 177 171 164 157 167 183 183 226 171 218 148 101 116 146 137
0 358 357 355 354 355 357 355 351 350 346 343 337 335 333 327 321 314 310 308 307 306 309 283 139 107 265 231 344 154 154 166 173 179 144 179 165 127 159 315 289 87 92 98 92 117 99
3 0 358 356 354 352 356 356 352 350 348 346 340 336 334 333 328 323 324 328 314 303 241 122 128 122 251 150 113 155 166 143 174 170 142 198 154 95 148 310 36 76 63 140 185 135 171
1 359 357 356 354 351 352 357 355 350 350 351 349 342 340 341 341 355 1 358 13 332 167 134 118 120 273 281 177 192 174 153 148 178 239 143 139 123 9 89 43 21 173 86 153 235 154
0 0 0 356 354 351 351 355 356 351 350 353 352 350 350 348 352 9 55 84 87 93 107 128 273 337 271 219 152 163 183 144 141 127 12 119 64 82 36 76 186 178 109 97 148 190 124
358 359 357 355 353 351 349 352 354 352 348 350 350 352 351 347 342 10 106 120 46 333 196 207 187 268 295 314 152 131 157 169 109 123 144 202 101 182 180 191 139 120 89 274 28 164 101
356 356 356 354 353 350 349 349 351 351 348 346 351 354 351 343 334 323 215 173 198 253 310 231 248 266 269 259 122 102 147 142 147 140 125 61 181 210 160 155 132 137 101 96 100 72 96
354 354 353 352 352 350 349 348 350 349 349 348 347 345 342 331 323 102 212 240 191 332 167 293 190 203 223 157 169 166 131 150 125 106 140 143 255 151 131 141 137 191 168 172 146 104 58
351 350 352 353 352 352 348 352 349 348 346 343 340 338 334 334 345 132 266 115 313 213 55 292 286 265 141 185 56 152 168 142 79 153 142 161 201 139 123 158 143 207 195 155 144 113 166
351 351 354 354 351 350 349 350 346 344 341 340 334 331 323 321 301 224 184 329 36 122 62 317 219 166 286 132 149 218 182 64 136 133 98 242 154 140 132 205 167 213 152 160 160 97 113
352 353 357 353 352 348 350 348 347 344 339 336 331 325 316 308 262 258 323 332 134 39 31 356 110 128 108 22 52 118 114 63 126 108 44 223 239 160 205 197 174 160 82 54 60 89 359
352 352 356 354 352 347 350 349 347 342 340 334 327 318 303 243 228 188 340 52 37 101 319 353 10 18 109 43 105 112 138 110 141 112 254 304 260 246 150 121 89 78 83 48 51 64 212
353 353 353 352 349 347 351 349 346 342 342 336 331 316 294 257 135 246 328 54 79 279 291 328 36 60 87 357 45 23 80 86 90 89 111 164 304 186 176 177 179 188 158 151 160 179 215
352 353 354 351 348 348 351 350 347 344 346 338 332 313 283 277 209 182 76 67 196 210 280 320 93 67 10 349 106 75 53 152 149 167 162 145 280 300 200 189 145 185 192 185 102 38 95
350 352 352 351 349 348 351 350 349 346 349 341 335 326 297 174 144 130 74 226 231 213 278 356 90 63 118 344 61 49 21 247 161 217 163 191 324 275 296 67 49 161 165 91 22 133 195
349 351 352 351 349 350 352 350 349 345 346 342 1 45 9 152 98 51 125 229 259 250 241 42 86 66 59 99 78 97 214 53 268 7 278 129 99 289 7 36 357 347 345 51 112 114 154
353 351 351 351 351 351 351 351 350 347 344 350 48 66 3 150 54 0 151 212 315 29 5 58 91 97 72 38 74 131 177 187 206 161 28 339 129 320 251 309 247 320 103 124 137 210 107
350 351 351 351 350 350 352 353 351 350 348 346 78 187 29 1 132 280 287 322 70 31 22 48 73 55 73 87 41 0 214 262 231 133 161 190 13 37 346 357 8 43 321 125 125 91 189
349 350 351 350 350 351 352 353 354 353 0 73 84 70 344 56 109 154 150 40 97 19 65 48 49 81 87 49 52 243 343 47 281 65 70 72 95 147 184 202 196 329 333 342 117 114 167
349 349 348 347 348 350 353 354 356 357 2 14 25 129 184 339 357 42 70 348 88 24 38 29 27 29 100 65 359 345 342 345 43 30 57 88 120 140 165 218 234 162 325 328 199 182 158
344 345 345 345 345 350 354 355 357 5 3 34 89 104 3 105 298 139 337 11 115 140 51 1 101 42 56 93 190 312 18 17 297 16 70 29 105 99 216 306 271 110 3 25 55 83 41
339 340 343 341 343 349 354 355 0 7 18 33 12 35 98 313 7 77 308 111 105 74 32 59 56 102 51 346 215 242 186 141 80 12 100 72 115 44 259 326 323 6 2 356 279 215 143
335 335 337 337 340 344 351 354 2 6 12 25 10 17 76 348 65 27 51 77 66 24 125 28 24 63 343 324 8 58 40 67 56 25 358 124 83 90 213 337 138 234 121 99 103 7 339
330 332 332 334 334 337 346 351 0 4 6 27 13 52 102 74 314 29 37 64 64 41 60 74 4 332 327 40 47 30 350 20 30 36 21 44 117 84 127 201 288 317 31 31 106 291 280
326 326 329 325 326 330 339 346 356 3 7 20 22 19 93 112 345 274 61 24 73 13 2 2 354 354 59 68 58 109 207 239 315 7 81 57 65 106 97 126 204 261 305 290 153 318 162
318 320 321 314 319 319 330 341 352 5 11 36 24 21 84 101 337 48 78 110 114 91 123 316 341 9 47 60 71 140 256 213 135 147 342 18 13 123 123 208 290 288 304 305 119 241 148
314 312 313 306 306 300 315 334 348 8 13 17 35 23 85 98 330 7 31 90 69 72 108 278 38 358 40 65 113 204 162 248 68 256 152 162 129 168 86 96 265 357 320 212 226 202 151
309 310 306 296 293 281 283 317 340 7 21 17 42 31 71 91 175 56 60 48 35 196 138 1 166 182 181 92 101 122 202 41 157 226 337 110 180 184 166 211 252 283 246 287 272 38 50
Height
823 820 816 812 809 805 801 798 795 792 789 786 784 781 779 778 777 775 774 772 772 772 771 770 769 769 771 772 761 751 752 756 760 763 766 771 778 783 789 785 783 788 779 778 779 782 790
823 820 816 813 809 805 802 798 794 791 788 785 782 779 777 775 775 774 772 771 769 768 769 769 768 770 770 773 754 751 749 755 760 764 767 769 774 773 779 781 784 777 779 781 783 789 792
822 819 816 813 809 805 801 798 794 791 787 784 780 777 775 773 772 771 771 769 768 767 766 768 769 771 770 761 754 753 752 755 761 765 767 768 769 773 776 780 772 777 792 786 789 793 802
822 818 815 812 808 804 801 797 794 790 787 783 779 776 773 771 768 768 767 767 767 766 765 767 769 771 768 751 753 755 756 760 763 766 767 768 770 772 776 774 778 789 792 804 793 795 800
821 818 814 811 807 803 800 797 793 789 786 783 779 775 772 769 768 767 766 767 765 766 766 767 770 772 765 751 752 755 758 759 764 768 769 769 771 778 777 791 805 806 816 807 803 794 799
821 817 813 810 806 802 799 796 792 789 786 782 778 775 771 769 767 767 766 765 767 768 769 770 771 775 753 749 746 752 757 760 764 768 772 773 782 793 798 803 825 811 806 804 806 800 799
821 817 812 808 804 801 798 795 791 788 785 782 778 774 770 768 766 766 766 767 770 772 770 760 757 757 749 746 746 750 755 761 763 770 785 779 795 804 796 790 793 794 798 806 801 792 800
821 817 812 807 804 800 796 793 790 787 784 781 778 774 771 768 766 766 765 766 762 765 767 752 753 753 748 747 750 749 753 764 767 781 777 791 801 787 783 787 791 795 800 812 803 799 803
820 817 812 807 803 799 795 791 788 785 782 780 776 773 769 765 763 762 764 761 760 761 770 754 750 748 744 746 750 751 750 759 769 776 779 793 783 779 782 789 794 796 805 809 805 804 802
820 815 811 806 802 798 794 790 787 783 779 776 773 769 767 764 766 763 761 759 759 759 783 760 751 741 742 741 751 743 746 754 765 779 781 781 773 778 785 789 793 804 788 793 803 812 830
819 815 810 806 801 797 793 789 785 780 777 774 771 767 765 762 761 761 759 757 755 759 799 752 746 735 739 746 747 749 745 751 769 773 778 787 778 782 789 786 785 793 779 793 798 818 822
819 814 810 806 801 796 792 788 783 779 774 771 768 763 760 760 759 756 756 754 756 786 789 760 743 747 750 747 748 749 750 749 756 770 774 778 766 773 778 773 776 777 789 805 816 824 840
817 813 809 805 801 796 791 787 782 777 772 767 763 759 756 757 755 754 753 753 786 793 761 766 760 751 754 759 756 754 763 770 782 798 795 782 777 767 765 779 777 787 803 839 843 845 842
816 812 808 804 799 795 790 785 780 775 769 763 757 754 752 751 751 753 754 768 786 772 770 758 760 762 771 767 767 767 771 784 772 784 804 805 802 774 762 771 785 792 795 826 839 848 834
816 811 807 803 797 793 789 784 778 773 767 760 753 750 749 747 748 752 761 790 784 775 763 764 764 777 781 772 769 774 780 784 774 777 796 804 794 764 759 757 764 785 797 785 820 822 831
815 811 807 802 797 792 788 782 776 770 765 758 753 750 748 747 749 752 771 782 774 765 759 760 773 773 783 785 779 781 781 773 774 769 772 787 799 771 763 755 759 770 770 800 816 836 830
815 810 806 801 796 791 787 782 776 769 762 756 754 756 750 751 752 761 781 779 767 756 756 762 771 776 780 781 785 786 786 774 769 770 776 782 792 786 770 779 782 781 784 794 802 815 830
813 809 805 801 796 791 786 781 775 768 760 755 755 763 753 754 769 783 778 768 756 758 757 760 764 770 776 779 784 784 782 775 765 768 778 779 800 803 783 774 776 774 781 792 806 814 823
813 808 804 801 796 791 786 781 775 769 761 759 763 765 757 756 779 782 772 761 761 763 766 762 767 767 771 781 786 782 779 766 764 768 776 777 805 816 799 789 781 792 786 788 800 805 814
813 808 804 800 796 791 786 781 775 769 762 760 762 768 765 764 771 769 770 767 769 762 768 769 773 767 774 786 785 783 778 768 764 768 770 779 806 803 821 805 800 797 792 782 792 806 811
812 808 803 799 796 791 787 782 777 770 763 764 765 774 772 776 770 769 768 767 773 775 771 773 777 782 777 787 787 785 779 774 768 772 778 787 802 796 797 795 794 793 795 790 787 786 788
811 807 803 799 795 791 787 783 778 772 765 765 770 771 774 775 776 770 778 776 775 778 776 779 786 783 785 791 790 789 785 784 779 775 782 793 806 796 797 790 790 790 795 788 788 790 791
810 806 803 798 795 791 789 785 780 775 770 769 770 771 772 779 777 775 780 773 775 775 778 777 778 782 785 782 780 779 780 786 786 782 789 795 803 812 811 802 787 798 797 794 791 784 788
808 805 802 798 794 792 789 786 782 777 774 774 773 773 776 786 780 781 773 774 779 778 781 780 778 779 777 775 775 779 782 781 783 792 791 797 807 816 821 808 819 797 780 785 794 790 789
805 803 800 797 794 791 789 786 783 779 775 773 773 772 777 789 786 781 780 780 780 782 783 782 780 780 778 783 794 801 803 788 790 798 797 794 808 825 824 825 811 789 787 790 795 797 789
803 800 798 795 792 790 788 787 783 780 777 774 773 772 773 785 791 785 786 787 794 796 792 784 781 780 782 802 807 809 814 806 802 794 797 799 804 810 828 819 823 806 788 784 782 806 785
799 797 795 792 791 789 787 786 783 780 778 777 776 773 772 786 786 784 790 791 793 797 799 798 791 790 789 809 819 829 828 810 827 806 805 820 823 823 829 825 816 796 792 784 806 806 788
796 794 792 789 788 787 786 785 784 781 780 779 778 776 774 785 788 785 784 788 792 797 801 797 797 796 804 813 816 822 826 823 824 813 808 815 828 829 836 825 816 799 790 793 797 792 788
792 790 789 787 786 785 785 784 783 781 780 779 777 777 777 779 789 788 787 786 785 786 793 799 798 801 803 815 820 823 818 824 825 829 812 821 817 818 821 823 808 801 798 793 791 790 793